WX7EM Weather Reports


time (UTC)temp
C
wind
direction
speed
KPH
gust
KPH
rain 1hr
cm
rain 24hr
cm
rain mn
cm
humidity
%
barometer
mb
20260506044942 12 101 0.0 0.0 0.00 0.00 0.00 92 1015.8
20260506044440 12 101 0.0 0.0 0.00 0.00 0.00 91 1015.7
20260506043937 13 107 0.0 0.0 0.00 0.00 0.00 90 1015.7
20260506043434 13 111 0.0 0.0 0.00 0.00 0.00 89 1015.8
20260506042932 13 110 0.0 0.0 0.00 0.00 0.00 88 1015.5
20260506042431 13 110 0.0 0.0 0.00 0.00 0.00 88 1015.5
20260506041929 13 110 0.0 0.0 0.00 0.00 0.00 88 1015.6
20260506041426 13 110 0.0 0.0 0.00 0.00 0.00 88 1015.7
20260506040923 13 104 0.0 0.0 0.00 0.00 0.00 88 1015.2
20260506040421 13 116 0.0 0.0 0.00 0.00 0.00 87 1015.3
20260506035916 14 116 0.0 0.0 0.00 0.00 0.00 86 1015.1
20260506035415 14 116 0.0 0.0 0.00 0.00 0.00 86 1015.2
20260506034911 14 116 0.0 0.0 0.00 0.00 0.00 85 1014.9
20260506034408 15 116 0.0 0.0 0.00 0.00 0.00 83 1015.1
20260506033905 15 116 0.0 0.0 0.00 0.00 0.00 82 1014.9
20260506033402 15 116 0.0 0.0 0.00 0.00 0.00 81 1014.9
20260506032859 15 98 0.0 0.0 0.00 0.00 0.00 80 1014.7
20260506032356 16 98 0.0 0.0 0.00 0.00 0.00 79 1014.7
20260506031853 16 98 0.0 1.6 0.00 0.00 0.00 78 1014.7
20260506031350 16 103 0.0 0.0 0.00 0.00 0.00 77 1014.5
20260506030848 16 103 0.0 0.0 0.00 0.00 0.00 77 1014.5
20260506030346 16 108 1.6 1.6 0.00 0.00 0.00 76 1014.8
20260506025842 17 107 0.0 1.6 0.00 0.00 0.00 74 1014.6
20260506025338 17 120 3.2 3.2 0.00 0.00 0.00 73 1014.5
20260506024836 17 69 1.6 3.2 0.00 0.00 0.00 72 1014.6
20260506024332 17 98 0.0 1.6 0.00 0.00 0.00 71 1014.5
20260506023829 18 18 1.6 1.6 0.00 0.00 0.00 70 1014.7
20260506023326 18 111 0.0 1.6 0.00 0.00 0.00 70 1014.7
20260506022822 18 124 0.0 1.6 0.00 0.00 0.00 69 1014.5
20260506022320 18 68 1.6 3.2 0.00 0.00 0.00 69 1014.5
20260506021818 18 103 1.6 3.2 0.00 0.00 0.00 70 1014.3
20260506021314 18 108 0.0 1.6 0.00 0.00 0.00 69 1014.4
20260506020811 18 104 1.6 3.2 0.00 0.00 0.00 70 1014.3
20260506020309 18 46 1.6 6.4 0.00 0.00 0.00 70 1014.4
20260506015807 18 74 1.6 4.8 0.00 0.00 0.00 71 1014.6
20260506015306 18 97 1.6 3.2 0.00 0.00 0.00 68 1014.7
20260506014800 18 98 1.6 1.6 0.00 0.00 0.00 68 1014.4
20260506014257 18 61 0.0 1.6 0.00 0.00 0.00 68 1014.5
20260506013754 18 107 0.0 3.2 0.00 0.00 0.00 69 1014.6
20260506013251 18 31 3.2 3.2 0.00 0.00 0.00 68 1014.6
20260506012748 18 94 1.6 1.6 0.00 0.00 0.00 69 1014.4
20260506012245 18 131 1.6 3.2 0.00 0.00 0.00 69 1014.5
20260506011742 18 75 1.6 4.8 0.00 0.00 0.00 68 1014.5
20260506011238 18 25 4.8 4.8 0.00 0.00 0.00 69 1014.4
20260506010737 19 76 1.6 4.8 0.00 0.00 0.00 68 1014.6
20260506010234 18 97 0.0 3.2 0.00 0.00 0.00 69 1014.5
20260506005731 18 8 3.2 3.2 0.00 0.00 0.00 68 1014.6
20260506005227 18 97 3.2 4.8 0.00 0.00 0.00 70 1014.5
20260506004723 18 148 1.6 3.2 0.00 0.00 0.00 70 1014.4
20260506004221 18 125 1.6 3.2 0.00 0.00 0.00 70 1014.6
20260506003717 18 105 0.0 3.2 0.00 0.00 0.00 70 1014.6
20260506003214 17 106 0.0 3.2 0.00 0.00 0.00 72 1014.5
20260506002709 18 117 1.6 4.8 0.00 0.00 0.00 71 1014.4
20260506002206 18 112 1.6 1.6 0.00 0.00 0.00 71 1014.7
20260506001701 17 90 1.6 3.2 0.00 0.00 0.00 70 1014.5
20260506001159 17 74 0.0 3.2 0.00 0.00 0.00 71 1014.6
20260506000656 17 7 1.6 4.8 0.00 0.00 0.00 70 1014.8
20260506000154 18 64 1.6 3.2 0.00 0.00 0.00 71 1014.7
20260505235652 18 73 1.6 4.8 0.00 0.00 0.00 70 1014.8
20260505235149 18 30 0.0 3.2 0.00 0.00 0.00 71 1014.8
20260505234645 17 121 1.6 1.6 0.00 0.00 0.00 72 1015.0
20260505234142 17 6 0.0 3.2 0.00 0.00 0.00 74 1014.8
20260505233639 17 256 3.2 4.8 0.00 0.00 0.00 75 1015.0
20260505233137 17 49 0.0 6.4 0.00 0.00 0.00 74 1015.0
20260505232634 17 152 1.6 3.2 0.00 0.00 0.00 75 1015.1
20260505232132 16 199 1.6 3.2 0.00 0.00 0.00 76 1015.2
20260505231628 16 252 4.8 4.8 0.00 0.00 0.00 75 1015.2
20260505231127 16 171 1.6 3.2 0.00 0.00 0.00 75 1015.2
20260505230625 16 156 1.6 4.8 0.00 0.00 0.00 75 1015.2
20260505230121 16 133 1.6 3.2 0.00 0.00 0.00 76 1015.3
20260505225617 16 93 0.0 4.8 0.00 0.00 0.00 76 1015.3
20260505225114 16 220 4.8 4.8 0.00 0.00 0.00 76 1015.2
20260505224610 16 134 1.6 4.8 0.00 0.00 0.00 75 1015.3
20260505224108 16 97 3.2 4.8 0.00 0.00 0.00 75 1015.1
20260505223605 16 66 0.0 3.2 0.00 0.00 0.00 76 1015.3
20260505223101 16 138 0.0 3.2 0.00 0.00 0.00 76 1015.4
20260505222557 16 275 3.2 4.8 0.00 0.00 0.00 75 1015.4
20260505222054 16 114 1.6 6.4 0.00 0.00 0.00 75 1015.5
20260505221551 16 142 0.0 1.6 0.00 0.00 0.00 75 1015.3
20260505221047 16 151 1.6 1.6 0.00 0.00 0.00 76 1015.4
20260505220545 16 195 3.2 9.7 0.00 0.00 0.00 75 1015.4
20260505220042 16 173 1.6 3.2 0.00 0.00 0.00 76 1015.5
20260505215540 16 196 3.2 6.4 0.00 0.00 0.00 74 1015.6
20260505215038 16 203 1.6 4.8 0.00 0.00 0.00 76 1015.6
20260505214536 16 204 3.2 6.4 0.00 0.00 0.00 75 1015.6
20260505214032 16 185 3.2 4.8 0.00 0.00 0.00 74 1015.7
20260505213530 16 138 6.4 9.7 0.00 0.00 0.00 75 1015.4
20260505213026 16 171 3.2 4.8 0.00 0.00 0.00 75 1015.6
20260505212522 16 155 1.6 4.8 0.00 0.00 0.00 74 1015.7
20260505212020 16 209 3.2 4.8 0.00 0.00 0.00 75 1015.7
20260505211517 16 89 0.0 4.8 0.00 0.00 0.00 74 1015.5
20260505211014 16 246 3.2 4.8 0.00 0.00 0.00 75 1015.8
20260505210510 16 128 0.0 3.2 0.00 0.00 0.00 75 1015.7
20260505210007 16 258 8.0 9.7 0.00 0.00 0.00 76 1015.7
20260505205506 16 257 8.0 9.7 0.00 0.00 0.00 76 1015.6
20260505205002 16 215 6.4 9.7 0.00 0.00 0.00 76 1015.8
20260505204500 15 273 4.8 6.4 0.00 0.00 0.00 77 1015.8
20260505203957 15 268 6.4 6.4 0.00 0.00 0.00 76 1015.9
20260505203453 15 240 6.4 9.7 0.00 0.00 0.00 77 1015.9
20260505202950 16 192 3.2 6.4 0.00 0.00 0.00 77 1015.7
20260505202447 16 272 4.8 4.8 0.00 0.00 0.00 75 1015.7
20260505201942 15 241 4.8 6.4 0.00 0.00 0.00 77 1015.7
20260505201439 16 168 1.6 4.8 0.00 0.00 0.00 76 1015.8
20260505200938 15 245 3.2 3.2 0.00 0.00 0.00 77 1016.0
20260505200435 15 141 1.6 3.2 0.00 0.00 0.00 77 1015.9
20260505195930 15 134 1.6 4.8 0.00 0.00 0.00 78 1015.8
20260505195428 15 226 1.6 6.4 0.00 0.00 0.00 79 1015.9
20260505194925 15 279 6.4 9.7 0.00 0.00 0.00 78 1016.0
20260505194423 15 252 1.6 9.7 0.00 0.00 0.00 80 1016.0
20260505193922 15 274 4.8 6.4 0.00 0.00 0.00 78 1016.1
20260505193420 15 272 4.8 4.8 0.00 0.00 0.00 78 1015.9
20260505192918 15 171 1.6 4.8 0.00 0.00 0.00 79 1015.8
20260505192416 15 223 1.6 4.8 0.00 0.00 0.00 79 1015.9
20260505191913 15 255 3.2 6.4 0.00 0.00 0.00 78 1016.1
20260505191412 15 143 1.6 1.6 0.00 0.00 0.00 76 1016.0
20260505190908 15 100 0.0 1.6 0.00 0.00 0.00 77 1015.8
20260505190404 15 149 1.6 3.2 0.00 0.00 0.00 77 1015.8
20260505185859 15 64 1.6 3.2 0.00 0.00 0.00 77 1016.0
20260505185356 15 315 3.2 3.2 0.00 0.00 0.00 77 1016.0
20260505184852 15 100 0.0 3.2 0.00 0.00 0.00 78 1016.1
20260505184349 15 188 3.2 3.2 0.00 0.00 0.00 77 1015.9
20260505183846 15 175 1.6 1.6 0.00 0.00 0.00 77 1015.8
20260505183343 15 105 1.6 3.2 0.00 0.00 0.00 77 1015.8
20260505182840 15 143 0.0 3.2 0.00 0.00 0.00 79 1015.7
20260505182336 14 211 3.2 4.8 0.00 0.00 0.00 78 1015.8
20260505181833 14 247 4.8 6.4 0.00 0.00 0.00 79 1015.8
20260505181459 15 336 0.0 3.2 0.00 0.00 0.00 77 1015.8
20260505181331 14 124 0.0 3.2 0.00 0.00 0.00 80 1015.8
20260505180827 14 211 3.2 4.8 0.00 0.00 0.00 79 1015.9
20260505180324 14 152 1.6 1.6 0.00 0.00 0.00 80 1015.8
20260505175820 14 200 3.2 3.2 0.00 0.00 0.00 80 1015.7
20260505175317 14 173 1.6 3.2 0.00 0.00 0.00 80 1015.7
20260505174813 14 165 1.6 1.6 0.00 0.00 0.00 80 1015.8
20260505174311 14 153 1.6 3.2 0.00 0.00 0.00 80 1015.7
20260505173806 14 118 0.0 1.6 0.00 0.00 0.00 80 1015.8
20260505173303 14 125 0.0 1.6 0.00 0.00 0.00 80 1015.5
20260505172800 13 127 0.0 1.6 0.00 0.00 0.00 82 1015.5
20260505172257 13 135 1.6 4.8 0.00 0.00 0.00 82 1015.8
20260505171752 13 113 0.0 1.6 0.00 0.00 0.00 82 1015.7
20260505171249 13 125 0.0 3.2 0.00 0.00 0.00 81 1015.6
20260505170746 13 236 3.2 4.8 0.00 0.00 0.00 82 1015.6
20260505170526 14 273 1.6 4.8 0.00 0.00 0.00 80 1015.5
20260505170244 13 144 1.6 4.8 0.00 0.00 0.00 82 1015.5
20260505165744 13 203 1.6 3.2 0.00 0.00 0.00 83 1015.6
20260505165240 13 132 1.6 3.2 0.00 0.00 0.00 82 1015.5
20260505164736 13 84 1.6 1.6 0.00 0.00 0.00 82 1015.5
20260505164233 13 105 0.0 3.2 0.00 0.00 0.00 83 1015.7
20260505163731 13 81 0.0 3.2 0.00 0.00 0.00 83 1015.7
20260505163230 13 86 3.2 4.8 0.00 0.00 0.00 83 1015.7
20260505162726 13 131 1.6 1.6 0.00 0.00 0.00 83 1015.5
20260505162223 13 44 1.6 3.2 0.00 0.00 0.00 84 1015.5
20260505161720 13 137 1.6 1.6 0.00 0.00 0.00 84 1015.7
20260505161218 13 159 1.6 1.6 0.00 0.00 0.00 84 1015.6
20260505160715 13 166 1.6 3.2 0.00 0.00 0.00 85 1015.5
20260505160213 13 139 1.6 1.6 0.00 0.00 0.00 86 1015.4
20260505153152 12 141 0.0 3.2 0.00 0.00 0.00 87 1015.8
20260505152649 12 121 1.6 1.6 0.00 0.00 0.00 87 1015.5
20260505152144 12 204 4.8 6.4 0.00 0.00 0.00 87 1015.5
20260505151640 12 190 1.6 3.2 0.00 0.00 0.00 88 1015.5
20260505151137 12 134 1.6 3.2 0.00 0.00 0.00 88 1015.5
20260505150633 12 180 1.6 4.8 0.00 0.00 0.00 88 1015.4
20260505150131 12 148 1.6 3.2 0.00 0.00 0.00 89 1015.3
20260505140559 11 145 1.6 3.2 0.00 0.00 0.00 92 1015.0
20260505125012 11 202 1.6 3.2 0.00 0.00 0.00 92 1014.8
20260505124509 11 137 1.6 1.6 0.00 0.00 0.00 92 1014.6
20260505124005 11 174 1.6 3.2 0.00 0.00 0.00 93 1014.4
20260505123502 11 135 0.0 3.2 0.00 0.00 0.00 93 1014.4
20260505122958 11 140 1.6 1.6 0.00 0.00 0.00 93 1014.5
20260505122455 11 140 0.0 1.6 0.00 0.00 0.00 93 1014.4
20260505121952 11 134 0.0 1.6 0.00 0.00 0.00 93 1014.7
20260505121449 11 148 1.6 1.6 0.00 0.00 0.00 93 1014.4
20260505120945 11 147 0.0 1.6 0.00 0.00 0.00 94 1014.6
20260505120441 11 158 1.6 3.2 0.00 0.00 0.00 94 1014.3
20260505115941 11 145 0.0 3.2 0.00 0.00 0.00 94 1014.3
20260505115437 11 140 1.6 3.2 0.00 0.00 0.00 94 1014.3
20260505114935 11 177 3.2 4.8 0.00 0.00 0.00 93 1014.3
20260505114431 11 179 1.6 3.2 0.00 0.00 0.00 93 1014.2
20260505113928 11 145 1.6 3.2 0.00 0.00 0.00 93 1014.3
20260505113424 11 130 0.0 1.6 0.00 0.00 0.00 92 1014.4
20260505112920 12 120 1.6 3.2 0.00 0.00 0.00 91 1014.3
20260505112418 12 130 1.6 3.2 0.00 0.00 0.00 90 1014.6
20260505111914 12 139 3.2 3.2 0.00 0.00 0.00 90 1014.5
20260505111409 12 139 0.0 1.6 0.00 0.00 0.00 90 1014.2
20260505110905 12 126 0.0 0.0 0.00 0.00 0.00 89 1014.3
20260505110402 12 162 1.6 1.6 0.00 0.00 0.00 89 1014.3
20260505101833 12 168 1.6 3.2 0.00 0.00 0.00 89 1014.2
20260505101328 12 181 3.2 4.8 0.00 0.00 0.00 89 1014.1
20260505100824 12 149 3.2 4.8 0.00 0.00 0.00 88 1014.1
20260505100321 12 190 3.2 6.4 0.00 0.00 0.00 88 1013.9
20260505095816 12 150 1.6 1.6 0.00 0.00 0.00 88 1013.9
20260505095314 12 187 3.2 6.4 0.00 0.00 0.00 88 1014.1
20260505094810 12 194 1.6 6.4 0.00 0.00 0.00 88 1013.9
20260505094307 12 158 3.2 6.4 0.00 0.00 0.00 88 1013.9
20260505093802 12 188 3.2 9.7 0.00 0.00 0.00 88 1013.9
20260505093300 12 140 3.2 4.8 0.00 0.00 0.00 88 1013.8
20260505092757 12 123 1.6 3.2 0.00 0.00 0.00 88 1013.8
20260505092255 12 190 3.2 4.8 0.00 0.00 0.00 88 1014.0
20260505091752 12 133 1.6 4.8 0.00 0.00 0.00 88 1014.0
20260505091250 12 191 3.2 11.3 0.00 0.00 0.00 88 1013.9
20260505090748 12 199 8.0 12.9 0.00 0.00 0.00 88 1013.9
20260505090246 12 145 1.6 3.2 0.00 0.00 0.00 88 1013.7
20260505085743 12 134 0.0 6.4 0.00 0.00 0.00 88 1013.8
20260505085241 12 181 3.2 11.3 0.00 0.00 0.00 88 1013.7
20260505084738 12 198 4.8 4.8 0.00 0.00 0.00 88 1013.8
20260505084238 12 132 0.0 1.6 0.00 0.00 0.00 88 1013.8
20260505083734 12 131 0.0 1.6 0.00 0.00 0.00 88 1013.8
20260505083230 12 142 1.6 3.2 0.00 0.00 0.00 87 1013.9
20260505082726 12 189 3.2 4.8 0.00 0.00 0.00 87 1013.9
20260505082224 12 74 3.2 4.8 0.00 0.00 0.00 87 1013.6
20260505081719 12 193 3.2 6.4 0.00 0.00 0.00 87 1013.9
20260505081217 12 146 3.2 9.7 0.00 0.00 0.00 87 1013.7
20260505080714 12 138 1.6 11.3 0.00 0.00 0.00 87 1013.6
20260505080210 12 124 3.2 12.9 0.00 0.00 0.00 87 1013.7
20260505075706 12 198 1.6 4.8 0.00 0.00 0.00 87 1013.7
20260505075203 12 126 1.6 4.8 0.00 0.00 0.00 88 1013.5
20260505074700 12 212 8.0 11.3 0.00 0.00 0.00 88 1013.4
20260505074156 12 203 3.2 4.8 0.00 0.00 0.00 88 1013.7
20260505073655 12 185 3.2 4.8 0.00 0.00 0.00 89 1013.4
20260505073153 12 184 3.2 6.4 0.00 0.00 0.00 89 1013.6
20260505072648 12 114 3.2 6.4 0.00 0.00 0.00 89 1013.7
20260505072145 12 160 1.6 4.8 0.00 0.00 0.00 89 1013.4
20260505071640 12 162 0.0 3.2 0.00 0.00 0.00 89 1013.3
20260505071138 12 155 0.0 3.2 0.00 0.00 0.00 89 1013.5
20260505070635 12 146 0.0 3.2 0.00 0.00 0.00 89 1013.4
20260505070131 12 128 0.0 6.4 0.00 0.00 0.00 89 1013.4
20260505065627 12 157 4.8 9.7 0.00 0.00 0.00 89 1013.5
20260505065124 12 179 1.6 4.8 0.00 0.00 0.00 89 1013.5
20260505064621 12 174 1.6 3.2 0.00 0.00 0.00 89 1013.5
20260505064120 12 184 3.2 4.8 0.00 0.00 0.00 88 1013.4
20260505063617 12 173 1.6 4.8 0.00 0.00 0.00 88 1013.3
20260505063112 12 177 1.6 6.4 0.00 0.00 0.00 88 1013.4
20260505062609 12 191 4.8 11.3 0.00 0.00 0.00 88 1013.5
20260505062106 12 174 3.2 6.4 0.00 0.00 0.00 87 1013.3
20260505061603 12 192 1.6 4.8 0.00 0.00 0.00 87 1013.4
20260505061101 12 194 4.8 6.4 0.00 0.00 0.00 87 1013.5
20260505060559 12 201 6.4 9.7 0.00 0.00 0.00 87 1013.4
20260505060055 12 172 3.2 4.8 0.00 0.00 0.00 87 1013.4
20260505055550 12 190 3.2 4.8 0.00 0.00 0.00 88 1013.5
20260505055048 12 195 3.2 9.7 0.00 0.00 0.00 89 1013.3
20260505054545 12 190 4.8 4.8 0.00 0.00 0.00 88 1013.4
20260505054043 12 177 1.6 4.8 0.00 0.00 0.00 88 1013.4
20260505053539 12 176 3.2 4.8 0.00 0.00 0.00 88 1013.5
20260505053036 12 209 6.4 6.4 0.00 0.00 0.00 89 1013.5
20260505052533 12 149 3.2 3.2 0.00 0.00 0.00 89 1013.3
20260505052031 12 159 0.0 1.6 0.00 0.00 0.00 89 1013.1
20260505051527 12 164 0.0 3.2 0.00 0.00 0.00 88 1013.3
20260505051026 12 172 1.6 4.8 0.00 0.00 0.00 87 1013.2
20260505050524 12 159 4.8 11.3 0.00 0.00 0.00 88 1013.3